| time (UTC) | temp F | wind direction | speed MPH | gust MPH | rain 1hr in | rain 24hr in | rain mn in | humidity % | barometer mb |
| 20260906163032 | 73 | 155 | 2.0 | 10.0 | 0.00 | 0.00 | 0.00 | 64 | 961.1 |
| 20260906161520 | 72 | 78 | 2.0 | 4.0 | 0.00 | 0.00 | 0.00 | 66 | 961.2 |
| 20260906160017 | 71 | 123 | 2.0 | 7.0 | 0.00 | 0.00 | 0.00 | 68 | 961.3 |
| 20260906154519 | 70 | 115 | 3.0 | 8.0 | 0.00 | 0.00 | 0.00 | 68 | 961.1 |
| 20260906153013 | 69 | 121 | 2.0 | 6.0 | 0.00 | 0.00 | 0.00 | 72 | 961.0 |
| 20260906151507 | 68 | 217 | 2.0 | 5.0 | 0.00 | 0.00 | 0.00 | 78 | 960.9 |
| 20260906150014 | 67 | 40 | 2.0 | 9.0 | 0.00 | 0.00 | 0.00 | 79 | 961.0 |
| 20260906144619 | 66 | 116 | 1.0 | 4.0 | 0.00 | 0.00 | 0.00 | 82 | 960.9 |
| 20260906143055 | 64 | 348 | 3.0 | 7.0 | 0.00 | 0.00 | 0.00 | 84 | 960.9 |
| 20260906141549 | 62 | 282 | 2.0 | 9.0 | 0.00 | 0.00 | 0.00 | 86 | 960.8 |
| 20260906140046 | 61 | 341 | 1.0 | 6.0 | 0.00 | 0.00 | 0.00 | 88 | 960.9 |
| 20260906134544 | 60 | 40 | 1.0 | 5.0 | 0.00 | 0.00 | 0.00 | 91 | 960.9 |
| 20260906133039 | 58 | 255 | 0.0 | 6.0 | 0.00 | 0.00 | 0.00 | 91 | 960.8 |
| 20260906131540 | 58 | 77 | 2.0 | 9.0 | 0.00 | 0.00 | 0.00 | 91 | 960.8 |
| 20260906130045 | 58 | 163 | 0.0 | 4.0 | 0.00 | 0.00 | 0.00 | 92 | 960.8 |
| 20260906124538 | 58 | 5 | 1.0 | 6.0 | 0.00 | 0.00 | 0.00 | 92 | 960.5 |
| 20260906123037 | 58 | 95 | 2.0 | 5.0 | 0.00 | 0.00 | 0.00 | 91 | 960.5 |
| 20260906121534 | 58 | 73 | 1.0 | 3.0 | 0.00 | 0.00 | 0.00 | 91 | 960.3 |
| 20260906120036 | 58 | 95 | 1.0 | 6.0 | 0.00 | 0.00 | 0.00 | 92 | 960.2 |
| 20260906114536 | 58 | 96 | 0.0 | 4.0 | 0.00 | 0.00 | 0.00 | 92 | 960.1 |
| 20260906113028 | 58 | 329 | 0.0 | 2.0 | 0.00 | 0.00 | 0.00 | 92 | 959.9 |
| 20260906111526 | 57 | 329 | 0.0 | 2.0 | 0.00 | 0.00 | 0.00 | 91 | 959.9 |
| 20260906110032 | 57 | 331 | 1.0 | 5.0 | 0.00 | 0.00 | 0.00 | 91 | 959.7 |
| 20260906104523 | 57 | 5 | 0.0 | 2.0 | 0.00 | 0.00 | 0.00 | 91 | 959.6 |
| 20260906103020 | 57 | 5 | 0.0 | 3.0 | 0.00 | 0.00 | 0.00 | 91 | 959.5 |
| 20260906101519 | 57 | 355 | 0.0 | 2.0 | 0.00 | 0.00 | 0.00 | 91 | 959.4 |
| 20260906100018 | 57 | 355 | 1.0 | 3.0 | 0.00 | 0.00 | 0.00 | 91 | 959.2 |
| 20260906094527 | 57 | 360 | 0.0 | 2.0 | 0.00 | 0.00 | 0.00 | 91 | 959.0 |
| 20260906093015 | 57 | 5 | 0.0 | 3.0 | 0.00 | 0.00 | 0.00 | 91 | 958.9 |
| 20260906091513 | 57 | 5 | 1.0 | 4.0 | 0.00 | 0.00 | 0.00 | 91 | 958.7 |
| 20260906090013 | 57 | 304 | 1.0 | 3.0 | 0.00 | 0.00 | 0.00 | 91 | 958.6 |
| 20260906084514 | 57 | 313 | 0.0 | 3.0 | 0.00 | 0.00 | 0.00 | 91 | 958.6 |
| 20260906083010 | 57 | 308 | 0.0 | 3.0 | 0.00 | 0.00 | 0.00 | 91 | 958.3 |
| 20260906081528 | 57 | 279 | 2.0 | 4.0 | 0.00 | 0.00 | 0.00 | 91 | 958.1 |
| 20260906080007 | 57 | 295 | 1.0 | 5.0 | 0.00 | 0.00 | 0.00 | 91 | 958.1 |
| 20260906074507 | 57 | 286 | 0.0 | 3.0 | 0.00 | 0.00 | 0.00 | 91 | 958.3 |
| 20260906073005 | 57 | 287 | 0.0 | 2.0 | 0.00 | 0.00 | 0.00 | 91 | 958.2 |
| 20260906071505 | 58 | 287 | 1.0 | 4.0 | 0.00 | 0.00 | 0.00 | 91 | 958.3 |
| 20260906070004 | 58 | 278 | 1.0 | 4.0 | 0.00 | 0.00 | 0.00 | 91 | 958.2 |
| 20260906064503 | 58 | 277 | 1.0 | 6.0 | 0.00 | 0.00 | 0.00 | 91 | 958.2 |
| 20260906063002 | 58 | 254 | 2.0 | 4.0 | 0.00 | 0.00 | 0.00 | 91 | 958.3 |
| 20260906061601 | 58 | 284 | 1.0 | 4.0 | 0.00 | 0.00 | 0.00 | 91 | 958.4 |
| 20260906061501 | 58 | 284 | 1.0 | 4.0 | 0.00 | 0.00 | 0.00 | 91 | 958.3 |
| 20260906060100 | 57 | 298 | 1.0 | 4.0 | 0.00 | 0.00 | 0.00 | 91 | 958.4 |
| 20260906054558 | 58 | 271 | 1.0 | 4.0 | 0.00 | 0.00 | 0.00 | 91 | 958.6 |
| 20260906053106 | 58 | 281 | 2.0 | 4.0 | 0.00 | 0.00 | 0.00 | 91 | 958.6 |
| 20260906051557 | 58 | 284 | 1.0 | 3.0 | 0.00 | 0.00 | 0.00 | 91 | 958.5 |
| 20260906050115 | 58 | 269 | 2.0 | 4.0 | 0.00 | 0.00 | 0.00 | 91 | 958.6 |
| 20260906044557 | 58 | 269 | 2.0 | 4.0 | 0.00 | 0.00 | 0.00 | 90 | 958.4 |
| 20260906043056 | 58 | 283 | 1.0 | 4.0 | 0.00 | 0.00 | 0.00 | 90 | 958.8 |
| 20260906041553 | 58 | 281 | 1.0 | 3.0 | 0.00 | 0.00 | 0.00 | 90 | 958.5 |
| 20260906040105 | 58 | 273 | 2.0 | 4.0 | 0.00 | 0.00 | 0.00 | 90 | 958.5 |
| 20260906034600 | 58 | 274 | 0.0 | 3.0 | 0.00 | 0.00 | 0.00 | 89 | 958.5 |
| 20260906033049 | 59 | 265 | 0.0 | 4.0 | 0.00 | 0.00 | 0.00 | 89 | 958.4 |
| 20260906031551 | 59 | 296 | 1.0 | 4.0 | 0.00 | 0.00 | 0.00 | 89 | 958.3 |
| 20260906030047 | 59 | 271 | 0.0 | 2.0 | 0.00 | 0.00 | 0.00 | 89 | 958.3 |
| 20260906024546 | 59 | 270 | 0.0 | 3.0 | 0.00 | 0.00 | 0.00 | 88 | 958.2 |
| 20260906023050 | 60 | 355 | 0.0 | 2.0 | 0.00 | 0.00 | 0.00 | 88 | 958.2 |
| 20260906021557 | 60 | 355 | 0.0 | 2.0 | 0.00 | 0.00 | 0.00 | 88 | 958.2 |
| 20260906020054 | 61 | 11 | 0.0 | 1.0 | 0.00 | 0.00 | 0.00 | 87 | 958.2 |
| 20260906014552 | 61 | 5 | 0.0 | 3.0 | 0.00 | 0.00 | 0.00 | 87 | 958.1 |
| 20260906013044 | 61 | 314 | 0.0 | 2.0 | 0.00 | 0.00 | 0.00 | 86 | 957.9 |
| 20260906011542 | 62 | 314 | 0.0 | 2.0 | 0.00 | 0.00 | 0.00 | 86 | 958.0 |
| 20260906010042 | 62 | 355 | 0.0 | 7.0 | 0.00 | 0.00 | 0.00 | 86 | 957.9 |
| 20260906004540 | 63 | 317 | 0.0 | 4.0 | 0.00 | 0.00 | 0.00 | 86 | 957.8 |
| 20260906003044 | 63 | 289 | 0.0 | 3.0 | 0.00 | 0.00 | 0.00 | 85 | 957.7 |
| 20260906001539 | 63 | 336 | 0.0 | 2.0 | 0.00 | 0.00 | 0.00 | 85 | 957.6 |
| 20260906000038 | 64 | 97 | 0.0 | 3.0 | 0.00 | 0.00 | 0.00 | 84 | 957.5 |
| 20260905234537 | 65 | 303 | 1.0 | 5.0 | 0.00 | 0.00 | 0.00 | 83 | 957.5 |
| 20260905233041 | 65 | 43 | 0.0 | 3.0 | 0.00 | 0.00 | 0.00 | 82 | 957.5 |
| 20260905231536 | 66 | 327 | 0.0 | 4.0 | 0.00 | 0.00 | 0.00 | 81 | 957.6 |
| 20260905230035 | 66 | 68 | 1.0 | 3.0 | 0.00 | 0.00 | 0.00 | 81 | 957.7 |
| 20260905224534 | 66 | 130 | 0.0 | 5.0 | 0.00 | 0.00 | 0.00 | 81 | 957.5 |
| 20260905223039 | 67 | 246 | 3.0 | 6.0 | 0.00 | 0.00 | 0.00 | 80 | 957.6 |
| 20260905221543 | 67 | 267 | 3.0 | 7.0 | 0.00 | 0.00 | 0.00 | 78 | 957.3 |
| 20260905220034 | 69 | 246 | 1.0 | 5.0 | 0.00 | 0.00 | 0.00 | 76 | 957.3 |
| 20260905214532 | 69 | 53 | 1.0 | 3.0 | 0.00 | 0.00 | 0.00 | 77 | 957.0 |
| 20260905213034 | 70 | 265 | 3.0 | 8.0 | 0.00 | 0.00 | 0.00 | 76 | 956.9 |
| 20260905211542 | 71 | 256 | 3.0 | 7.0 | 0.00 | 0.00 | 0.00 | 74 | 956.9 |
| 20260905210033 | 71 | 306 | 2.0 | 6.0 | 0.00 | 0.00 | 0.00 | 75 | 956.8 |
| 20260905204530 | 71 | 355 | 2.0 | 6.0 | 0.00 | 0.00 | 0.00 | 75 | 956.7 |
| 20260905203033 | 70 | 152 | 1.0 | 6.0 | 0.00 | 0.00 | 0.00 | 76 | 956.8 |
| 20260905201535 | 70 | 280 | 1.0 | 4.0 | 0.00 | 0.00 | 0.00 | 75 | 956.8 |
| 20260905200045 | 70 | 338 | 1.0 | 4.0 | 0.00 | 0.00 | 0.00 | 75 | 956.9 |
| 20260905194532 | 70 | 284 | 2.0 | 6.0 | 0.00 | 0.00 | 0.00 | 74 | 956.7 |
| 20260905193027 | 71 | 5 | 0.0 | 0.0 | 0.00 | 0.00 | 0.00 | 73 | 956.8 |
| 20260905191527 | 71 | 5 | 0.0 | 3.0 | 0.00 | 0.00 | 0.00 | 71 | 956.8 |
| 20260905190026 | 71 | 19 | 1.0 | 4.0 | 0.00 | 0.00 | 0.00 | 69 | 956.8 |
| 20260905184532 | 72 | 262 | 3.0 | 6.0 | 0.00 | 0.00 | 0.00 | 68 | 956.8 |
| 20260905183025 | 72 | 286 | 2.0 | 7.0 | 0.00 | 0.00 | 0.00 | 69 | 956.8 |
| 20260905181523 | 72 | 281 | 1.0 | 7.0 | 0.00 | 0.00 | 0.00 | 70 | 956.9 |
| 20260905180020 | 71 | 294 | 2.0 | 5.0 | 0.00 | 0.00 | 0.00 | 72 | 956.9 |
| 20260905174520 | 70 | 24 | 2.0 | 6.0 | 0.00 | 0.00 | 0.00 | 72 | 956.9 |
| 20260905173019 | 70 | 5 | 2.0 | 5.0 | 0.00 | 0.00 | 0.00 | 73 | 956.9 |
| 20260905171535 | 69 | 286 | 3.0 | 7.0 | 0.00 | 0.00 | 0.00 | 75 | 957.1 |
| 20260905170022 | 69 | 279 | 1.0 | 9.0 | 0.00 | 0.00 | 0.00 | 73 | 957.1 |
| 20260905164517 | 71 | 360 | 2.0 | 6.0 | 0.00 | 0.00 | 0.00 | 72 | 957.2 |